Location: Alfortville
(48.8058°N, 2.4204°E)
Time: 05:15:35
(UTC+00:00)

N. Korean satellite - Visible Passes

Search period start: 09 December 2022 00:00
Search period end: 19 December 2022 00:00
Orbit: 420 x 452 km, 97.3° (Epoch: 08 December)

Date Brightness Start Highest point End Pass type
(mag) Time Alt. Az. Time Alt. Az. Time Alt. Az.
09 Dec 7.8 04:52:00 10° NNE 04:55:13 38° E 04:58:22 10° SSE visible
09 Dec 8.0 06:25:15 10° NNW 06:27:25 16° WNW 06:29:33 10° WSW visible
09 Dec 9.0 16:57:31 10° SSW 17:00:24 25° W 17:03:19 10° NW visible
10 Dec 9.6 04:13:59 10° ENE 04:15:50 14° E 04:17:40 10° SE visible
10 Dec 6.7 05:45:20 10° N 05:48:33 42° WNW 05:51:44 10° SW visible
11 Dec 6.9 05:06:05 10° NNE 05:09:26 59° E 05:12:43 10° S visible
11 Dec 8.3 06:40:13 10° NW 06:41:27 12° WNW 06:42:40 10° W visible
11 Dec 9.5 17:12:15 10° SW 17:14:38 18° W 17:17:03 10° NW visible
12 Dec 9.1 04:27:30 10° NE 04:30:02 20° E 04:32:33 10° SE visible
12 Dec 7.2 05:59:36 10° N 06:02:34 29° WNW 06:05:29 10° SW visible
12 Dec 7.5 16:31:53 10° S 16:35:12 51° W 16:38:33 10° NNW visible
13 Dec 6.2 05:20:03 10° NNE 05:23:26 90° WNW 05:26:45 10° SSW visible
13 Dec 9.8 17:27:10 10° WSW 17:28:42 13° W 17:30:16 10° WNW visible
14 Dec 8.5 04:41:05 10° NE 04:44:41 26° ESE 04:46:56 10° SSE visible
14 Dec 8.2 06:13:47 10° NNW 06:18:06 14° WSW 06:18:54 10° WSW visible
14 Dec 8.3 16:45:58 10° SSW 16:49:06 34° W 16:52:16 10° NNW visible
15 Dec 7.9 05:33:53 10° N 05:39:02 23° SSW 05:40:27 10° SSW visible
16 Dec 8.6 04:59:46 19° SSE 04:59:46 19° SSE 05:00:55 10° S visible
16 Dec8.906:33:09WSW06:33:09WSW06:27:36NNWvisible
16 Dec 9.1 17:00:01 10° SSW 17:02:50 24° W 17:05:40 10° NW visible
17 Dec9.804:20:22SE04:20:22SE04:14:05NEvisible
17 Dec 8.8 05:53:44 11° SW 05:53:44 11° SW 05:53:51 10° SW visible
18 Dec 8.9 05:14:13 13° S 05:14:13 13° S 05:14:34 10° S visible
18 Dec 9.6 17:14:04 10° SW 17:16:23 17° W 17:18:43 10° NW visible
